Home > Weather > Hay River > Past weeks

Flag for Canada Weather for the Past 2 Weeks in Hay River, Northwest Territories, Canada

Now
12 °F

Light snow. Partly sunny.


Feels Like: 0 °F
Forecast: -9 / 13 °F
Wind: 9 mph from Southeast

Location: Hay River

Current Time: Feb 5, 2016 at 3:32:34 PM

Latest Report: Feb 5, 2016 at 2:00 PM


Visibility: 12 mi

Pressure: 29.60 "Hg

Humidity: 79%

Dew point: 7 °F

Location of Hay RiverLocation

Historic Weather in Hay River — Graph

°F

Hay River Temperature Yesterday

Maximum temperature yesterday: -2 °F (at 12:00 AM)
Minimum temperature yesterday: -11 °F (at 9:00 PM)
Average temperature yesterday: -5 °F

High & Low Weather Summary for the Past Weeks

 TemperatureHumidityPressure
High23 °F (Jan 28, 3:00 PM)93% (Jan 28, 3:00 AM)30.30 "Hg (Jan 28, 3:00 AM)
Low-13 °F (Jan 31, 5:00 AM)65% (Feb 4, 2:00 PM)29.12 "Hg (Jan 28, 4:00 PM)
Average2 °F81%29.88 "Hg
* Reported Jan 21 2:00 PM — Feb 5 2:00 PM, Hay River, Weather by CustomWeather, © 2016

Note: Actual official high and low records may vary slightly from our data, if they occured in-between our weather recording intervals... More about our weather records

Advertising

Hay River Weather History for the Previous 24 Hours

 ConditionsComfort  
Time TempWeatherWind HumidityBarometerVisibility
2:00 PM
Fri, Feb 5
12 °FLight snow. Partly sunny.9 mph79%29.60 "Hg12 mi
1:00 PM9 °FLight snow. Partly sunny.6 mph78%29.63 "Hg4 mi
12:00 PM7 °FLight snow. Ice fog.7 mph78%29.67 "Hg2 mi
11:00 AM5 °FMore clouds than sun.7 mph78%29.68 "Hg15 mi
10:00 AM3 °FMore clouds than sun.8 mph78%29.70 "Hg15 mi
9:00 AM1 °FOvercast.7 mph78%29.74 "Hg15 mi
8:00 AM0 °FPassing clouds.7 mph78%29.78 "Hg15 mi
7:00 AM-2 °FPassing clouds.7 mph77%29.80 "Hg15 mi
6:00 AM-4 °FPassing clouds.9 mph77%29.84 "Hg15 mi
5:00 AM-6 °FPassing clouds.8 mph77%29.88 "Hg15 mi
4:00 AM-8 °FPassing clouds.8 mph77%29.90 "Hg15 mi
3:00 AM-8 °FPassing clouds.6 mph70%29.93 "Hg15 mi
2:00 AM-9 °FPassing clouds.8 mph77%29.94 "Hg15 mi
1:00 AM-9 °FPassing clouds.6 mph77%29.98 "Hg15 mi
12:00 AM-9 °FPassing clouds.7 mph77%30.00 "Hg15 mi
11:00 PM
Thu, Feb 4
-11 °FPassing clouds.7 mph76%30.02 "Hg15 mi
10:00 PM-11 °FPartly cloudy.7 mph76%30.04 "Hg15 mi
9:00 PM-11 °FPassing clouds.8 mph76%30.07 "Hg15 mi
8:00 PM-9 °FPassing clouds.6 mph77%30.09 "Hg15 mi
7:00 PM-9 °FPartly cloudy.8 mph77%30.10 "Hg15 mi
6:00 PM-8 °FPartly cloudy.6 mph77%30.11 "Hg15 mi
5:00 PM-8 °FBroken clouds.6 mph77%30.13 "Hg15 mi
4:00 PM-4 °FBroken clouds.8 mph71%30.13 "Hg15 mi
3:00 PM-2 °FPartly sunny.8 mph65%30.12 "Hg15 mi
Weather by CustomWeather, © 2016

See weather overviewHow to use our weather pages